Flag for U.S.A. Weather past 2 weeks in New Haven, Connecticut, U.S.A.

Now
63 °F

Clear.


Feels Like: 63 °F
Forecast: 47 / 69 °F
Wind: 10 mph from Northwest

Location: Tweed-New Haven Airport

Current Time: Sep 22, 2014 at 9:14:05 PM

Latest Report: Sep 22, 2014 at 7:53 PM


Visibility: 10 mi

Pressure: 30.03 "Hg

Humidity: 48%

Dew point: 43 °F

Location of New HavenLocation

Historic Weather in New Haven — Graph

°F

New Haven temperature yesterday

Maximum temperature yesterday: 78 °F (at 12:53 PM)
Minimum temperature yesterday: 67 °F (at 2:55 AM)
Average temperature yesterday: 72 °F

Past Weeks' High & Low Weather Summary

 TemperatureHumidityPressure
High80 °F (Sep 11, 2:53 PM)93% (Sep 21, 6:53 AM)30.40 "Hg (Sep 21, 6:53 AM)
Low48 °F (Sep 17, 6:53 AM)31% (Sep 18, 4:53 PM)29.60 "Hg (Sep 21, 9:04 PM)
Average65 °F67%30.09 "Hg
* Reported Sep 7 7:53 PM — Sep 22 7:53 PM, New Haven, Weather by CustomWeather, © 2014

Note: Actual official high and low records may vary slightly from our data, if they occured in-between our weather recording intervals... More about our weather records

Advertising

New Haven weather history for previous 24 hours

 ConditionsComfort  
Time TempWeatherWind HumidityBarometerVisibility
7:53 PM
Sep 22
63 °FClear.10 mph48%30.03 "Hg10 mi
6:53 PM66 °FScattered clouds.7 mph47%29.97 "Hg10 mi
5:53 PM68 °FSunny.12 mph44%29.94 "Hg10 mi
4:53 PM71 °FSunny.9 mph44%29.90 "Hg10 mi
3:53 PM72 °FPassing clouds.10 mph41%29.88 "Hg10 mi
2:53 PM73 °FScattered clouds.5 mph41%29.86 "Hg10 mi
1:53 PM73 °FScattered clouds.9 mph41%29.85 "Hg10 mi
12:53 PM73 °FPartly sunny.10 mph46%29.84 "Hg10 mi
11:53 AM71 °FPartly sunny.10 mph51%29.83 "Hg10 mi
10:53 AM70 °FPartly sunny.8 mph55%29.82 "Hg10 mi
9:53 AM69 °FSunny.7 mph61%29.81 "Hg10 mi
8:53 AM67 °FSunny.8 mph66%29.78 "Hg10 mi
7:53 AM65 °FSunny.6 mph76%29.75 "Hg10 mi
6:53 AM65 °FClear.7 mph70%29.72 "Hg10 mi
5:53 AM67 °FClear.5 mph63%29.68 "Hg10 mi
4:53 AM67 °FClear.5 mph76%29.65 "Hg10 mi
3:53 AM68 °FClear.5 mph78%29.63 "Hg10 mi
2:53 AM69 °FPassing clouds.6 mph81%29.61 "Hg10 mi
1:53 AM71 °FLight rain. Mostly cloudy.3 mph84%29.62 "Hg10 mi
12:53 AM71 °FFog.6 mph90%29.61 "Hg6 mi
11:53 PM
Sep 21
70 °FFog.No wind93%29.60 "Hg1 mi
10:58 PM71 °FFog.No wind93%29.61 "Hg0 mi
10:00 PM70 °FFog.No wind93%29.61 "Hg0 mi
9:04 PM71 °FFog.No wind90%29.60 "Hg1 mi
Weather by CustomWeather, © 2014

See weather overviewHow to use our weather pages